If you wish to contribute or participate in the discussions about articles you are invited to join SKYbrary as a registered user

 Actions

Mogadishu International Airport

From SKYbrary Wiki

HCMM
Airport
ICAO: HCMM
Summary
Name Mogadishu International Airport
Region Africa
Territory Somalia SO.gif
Location Mogadishu
Serving
Coordinates 2° 1' 0.98" N, 45° 18' 25.29" E
Runways
Designator Length Width Surface ROPS
5/23 3150 m10,334.646 ft <br /> 0 m0 ft <br /> UNK yes/yes


METAR
Observation HCMM 160500Z 14008KT 9999 SCT020 29/22 Q1011
Station Mogadiscio
Date/Time 16 April 2021 05:00:00
Wind direction 140°
Wind speed 08 kts
Lowest cloud amount scattered clouds
Temperature 29°C
Dew point 22°C
Humidity 66%
QNH 1011 hPa
Weather condition n/a

Aden Adde International Airport

ICAO: HCMM IATA: MGQ

Description

Aden Adde International Airport, formerly known as Mogadishu International Airport, is an international airport serving Mogadishu, the capital of Somalia.

Climatology

Maps

Terrain

Loading map...

Airport Layout

Loading map...


Accidents & Serious Incidents at or in vicinity of HCMM

None on SKYbrary